Location: G�yn�k
(36.6721°N, 30.5542°E)
Time: 14:35:27
(UTC+00:00)

SL-24 DEB - Pass Details

Date: 07 June 2020
Orbit: 665 x 701 km, 92.0° (Epoch: 13 July)

Event Time Altitude Azimuth Distance (km) Brightness Sun altitude
Rises 00:59:31 0° 2° (N) 3,013 8.4 -16.6°
Reaches altitude 10° 01:01:47 10° 1° (N) 2,094 7.4 -16.3°
Maximum altitude 01:06:22 73° 277° (W) 696 4.1 -15.6°
Enters shadow 01:09:26 21° 195° (SSW) 1,496 5.5 -15.2°
